Regional Weather Roundup
Issued by NWS Sioux Falls, SD

Home | Current Version | Previous Version | Graphics & Text | Print | Product List | Glossary Off
Versions: 1 2 3 4 5 6 7 8 9 10 11 12 13 14 15 16 17 18 19 20 21 22 23 24 25 26 27 28 29 30 31 32 33 34 35 36 37 38 39 40 41 42 43 44 45 46 47 48 49 50

000
ASUS43 KFSD 211802
RWRFSD

WEATHER ROUNDUP FOR SE SOUTH DAKOTA/SW MINNESOTA/NW IOWA
NATIONAL WEATHER SERVICE SIOUX FALLS SD
1200 PM CST SUN DEC 21 2014

NOTE: "FAIR" INDICATES FEW OR NO CLOUDS BELOW 12,000 FEET WITH NO
SIGNIFICANT WEATHER AND OR OBSTRUCTIONS TO VISIBILITY.


SDZ038>040-050-052>070-211900-
SOUTHEAST SOUTH DAKOTA

CITY           SKY/WX    TMP DP  RH WIND       PRES   REMARKS
CHAMBERLAIN    NOT AVBL
HURON          CLOUDY    31  30  96 S13       29.61F FOG     WCI  21
6HR MIN TEMP:  30; 6HR MAX TEMP:  31;

MADISON        FOG       32  32 100 S15G21    29.65F VSB<1/4 WCI  22
MITCHELL       PTSUNNY   33  31  92 SE16      29.63F WCI  23
6HR MIN TEMP:  31; 6HR MAX TEMP:  33; 6HR PCP: TRACE;

SIOUX FALLS    CLOUDY    34  33  96 S15       29.68F FOG     WCI  24
6HR MIN TEMP:  32; 6HR MAX TEMP:  34; 6HR PCP: TRACE;

WINNER         FAIR      41  28  60 SW17      29.52F
YANKTON        MOSUNNY   34  30  86 SE8       29.70F WCI  27
$$

MNZ071-072-080-081-089-090-097-098-211900-
SOUTHWEST MINNESOTA

CITY           SKY/WX    TMP DP  RH WIND       PRES   REMARKS
FAIRMONT       CLOUDY    36  34  93 S16       29.76F
JACKSON        CLOUDY    36  34  93 S14G21    29.75F FOG
LUVERNE        FOG       36  34  93 S10       29.71F VSB 1/4
MARSHALL       CLOUDY    36  30  80 S9        29.71F
6HR MIN TEMP:  32; 6HR MAX TEMP:  36;

MONTEVIDEO     CLOUDY    34  34 100 S9        29.72F FOG     WCI  26
PIPESTONE      FOG       34  34 100 S5        29.68F VSB 1/4 WCI  30
REDWOOD FALLS  CLOUDY    35  34  96 SE13      29.73F FOG     WCI  26
TRACY          CLOUDY    35  34  95 S16G24    29.70F FOG     WCI  26
WINDOM         CLOUDY    36  36 100 S13       29.73F FOG
WORTHINGTON    CLOUDY    36 -13  12 S18       29.72F VSB 3/4
$$

IAZ001>003-012>014-020>022-031-032-NEZ013-014-SDZ071-211900-
NORTHWEST IOWA

CITY           SKY/WX    TMP DP  RH WIND       PRES   REMARKS
DENISON        CLOUDY    39  39 100 S18G29    29.78F FOG
ESTHERVILLE    FOG       35  35 100 S15       29.76F VSB 1   WCI  25
SIOUX CITY     CLOUDY    42  38  85 S18       29.74F
6HR MIN TEMP:  37; 6HR MAX TEMP:  42;

SPENCER        FOG       38  36  92 S14       29.75F VSB 1
6HR MIN TEMP:  34; 6HR MAX TEMP:  38;

$$

ABBREVIATIONS USED IN REMARKS
   TC - TEMPERATURE IN CELSIUS
  WCI - WIND CHILL INDEX
   HX - HEAT INDEX
  VSB - VISIBILITY



USA.gov is the U.S. government's official web portal to all federal, state and local government web resources and services.